Weather in Prechistoye

Russia / Smolensk Oblast     55°30′31″N   32°21′44″E
temp.,
°C
wind,
m/s
gust,
m/s
humid.,
%
clouds,
%
prec.,
mm/h
press.,
hPa
HPBL,
m
24 may, tue
tue2400:00+6nw29955 0.1 1010194
03:00+4nw299535 0.1 1011197
06:00+4nw2673100 0.0 1011153
09:00+11nw4956100 0.0 1010724
12:00+15nnw6103735 0.0 10102124
15:00+17nnw6103167 0.0 10102382
18:00+15n410376 0.0 10112073
21:00+8n225924 0.0 101326
25 may, wed
wed2500:00+6nne255691 0.0 1015106
03:00+4e228973 0.0 101654
06:00+4e118598 0.0 101766
09:00+10n23605 0.0 1017738
12:00+15nnw35400 0.0 10151446
15:00+18nw36300 0.0 10142074
18:00+17nnw374220 0.0 10131811
21:00+11ssw116699 0.0 101310
26 may, thu
thu2600:00+12s226650 0.0 101342
03:00+11ssw227990 0.0 101149
06:00+11ssw2578100 0.0 1009124
09:00+15ssw4760100 0.0 1007624
12:00+12wsw5889100 1.4 1007648
15:00+10w4995100 3.1 1008796
18:00+13w357731 0.6 1006849
21:00+10sw3109151 0.8 1004272
27 may, fri
fri2700:00+10wsw4129397 0.1 1003495
03:00+9w61192100 0.6 1003882
06:00+8w51194100 0.2 1004835
09:00+10w697858 0.2 1004860
12:00+15wsw695034 0.3 10041896
15:00+16wsw61040100 0.3 10022429
18:00+13sw5971100 0.1 10011157
21:00+9sw3994100 0.4 1001670
28 may, sat
sat2800:00+9wsw61294100 2.4 999874
03:00+7wsw5119694 2.6 1000717
06:00+6wsw51090100 0.0 1001706
09:00+7wsw51081100 0.0 1001884
12:00+9wsw51074100 0.2 10021395
15:00+12wsw596199 0.7 10021910
18:00+11wsw586294 0.5 10021449
21:00+7sw3109151 0.9 1004404